Location: Perryvale
(54.4667°N, 113.3833°W)
Time: 21:35:11
(UTC+00:00)

SR - Pass Details

Date: 25 May 2024
Orbit: 580 x 858 km, 66.7° (Epoch: 19 June)

Event Time Altitude Azimuth Distance (km) Brightness Sun altitude
Rises 08:14:37 0° 318° (NW) 2,922 ? -13.9°
Reaches altitude 10° 08:16:58 10° 321° (NW) 1,979 ? -13.8°
Maximum altitude 08:21:22 69° 45° (NE) 640 ? -13.7°
Drops below altitude 10° 08:25:35 10° 129° (SE) 1,899 ? -13.5°
Enters shadow 08:27:44 - 132° (SE) 2,764 ? -13.5°
